星链-1710 (STARLINK-1710 )

导读

STARLINK-1710是美国SpaceX公司星链(Starlink)低轨宽带互联网星座的卫星之一,于2020年9月3日发射升空。星链计划通过部署数千颗低轨卫星,为全球偏远地区、海洋等传统通信难以覆盖的区域提供高速低延迟互联网服务,单星采用平板设计和霍尔推进器,服役后可自主控制,寿命结束后会坠入大气层焚毁,减少太空垃圾。该卫星是星链星座组网进程中的组成部分,助力全球卫星互联网覆盖网络的构建。

Basic Information
目录编号:
46330
目录名称:
STARLINK-1710
国际标识:
2020-062F
轨道中心:
EARTH
卫星名称:
星链-1710
卫星全名:
星链-1710 (STARLINK-1710 )
卫星状态:
已陨落 最后检测时间 2026-03-03
发射日期:
2020-09-03 UTC
国别 :
美国 (US)
星等 :
--
Orbit Information
数据来源 国际轨道数据
星历时间: 2026-03-03T14:13:21+0800
轨道信息已过期107天
半长轴: 6546.841km
偏心率: 0.0006597
轨道倾角: 53.016°
近地点辐角 249.066°
升交点赤经 309.384°
平近点角 110.968°
近地点: 164.385km
远地点: 173.023km
周期: 87.863分钟
每日圈数: 16.389101
Detailed Information
固有亮度:
5
最大亮度:
2.5
卫星平台:
Starlink V1.0
覆盖范围:
全球
运营商:
太空探索技术公司
运营商所在国:
美国
制造商(研发单位):
太空探索技术公司
制造商所在国:
美国
使用方式:
暂无
Satellite Introduction
星链(Starlink)计划是由太空探索技术公司(SpaceX)提出的一个巨型低轨卫星互联网星座项目,计划在2019年至2024年间在太空搭建由约1.2万颗卫星组成的“星链”网络,其中1584颗将部署在地球上空550千米处的近地轨道,并从2020年开始工作。该卫星仍在工作。